Dillon, MT

7:18 AM MDT on June 22, 2017 (GMT -0600)
Dillon

Weather History for KDLN - January, 2012

Change the Weather History Date:

Friday, January 13, 2012

  Actual Average Record
Temperature  
Mean Temperature 32 °F 23 °F  
Max Temperature 45 °F 32 °F 52 °F (1945)
Min Temperature 18 °F 13 °F -17 °F (2007)
Degree Days  
Heating Degree Days 33    
Month to date heating degree days 480  
Since 1 July heating degree days 3600  
Cooling Degree Days 0    
Month to date cooling degree days 0  
Year to date cooling degree days 0  
Moisture  
Dew Point 7 °F    
Average Humidity 38    
Maximum Humidity 56    
Minimum Humidity 20    
Precipitation  
Precipitation 0.00 in 0.01 in 0.28 in (1956)
Month to date precipitation T 0.12  
Year to date precipitation T 0.12  
Snow  
Snow 0.00 in - - ()
Snow Depth 0.00 in    
Sea Level Pressure  
Sea Level Pressure 30.24 in    
Wind  
Wind Speed 15 mph (SW)    
Max Wind Speed 25 mph    
Max Gust Speed 31 mph    
Visibility 10 miles    
Events      
T = Trace of Precipitation, MM = Missing Value Source: NWS Daily Summary

Daily Weather History Graph

Daily Weather History Graph

Search for Another Location

Airport or City:

Trip Planner

Search our weather history database for the weather conditions in past years. The results will help you decide how hot, cold, wet, or windy it might be!

Date:

Astronomy

Jan. 13, 2012 Rise Set
Actual Time 8:06 AM MST 5:11 PM MST
Civil Twilight 7:33 AM MST 5:44 PM MST
Nautical Twilight 6:57 AM MST 6:20 PM MST
Astronomical Twilight 6:21 AM MST 6:56 PM MST
Moon 10:46 PM MST (1/13) 10:07 AM MST (1/13)
Length of Visible Light 10h 10m
Length of Day
9h 04m
Waning Gibbous, 78% of the Moon is Illuminated
Jan 13
Waning Gibbous
Jan 16
Last Quarter
Jan 23
New
Jan 30
First Quarter
Feb 7
Full

Hourly Weather History & Observations

Time (MST) Temp. Windchill Dew Point Humidity Pressure Visibility Wind Dir Wind Speed Gust Speed Precip Events Conditions
12:53 AM 23.0 °F 14.7 °F 3.9 °F 44% 30.28 in 10.0 mi SSW 6.9 mph - N/A   Scattered Clouds
1:53 AM 24.1 °F 12.5 °F 3.9 °F 42% 30.24 in 10.0 mi SW 12.7 mph - N/A   Clear
2:53 AM 24.1 °F 11.0 °F 5.0 °F 44% 30.22 in 10.0 mi SW 16.1 mph - N/A   Clear
3:53 AM 27.0 °F 14.7 °F 3.9 °F 37% 30.21 in 10.0 mi SSW 16.1 mph - N/A   Clear
4:53 AM 24.1 °F 13.7 °F 3.9 °F 42% 30.25 in 10.0 mi WSW 10.4 mph - N/A   Mostly Cloudy
5:53 AM 25.0 °F 13.1 °F 5.0 °F 43% 30.29 in 10.0 mi SW 13.8 mph - N/A   Mostly Cloudy
6:53 AM 21.9 °F 10.4 °F 3.9 °F 46% 30.32 in 10.0 mi SSW 11.5 mph - N/A   Partly Cloudy
7:53 AM 19.9 °F 6.7 °F 5.0 °F 52% 30.35 in 10.0 mi WSW 13.8 mph - N/A   Clear
8:53 AM 21.0 °F 9.3 °F 5.0 °F 50% 30.35 in 10.0 mi WSW 11.5 mph - N/A   Clear
9:53 AM 30.0 °F 18.3 °F 5.0 °F 35% 30.28 in 10.0 mi SW 17.3 mph - N/A   Clear
10:53 AM 36.0 °F 25.6 °F 5.0 °F 27% 30.27 in 10.0 mi SW 18.4 mph 25.3 mph N/A   Clear
11:53 AM 37.9 °F 28.2 °F 5.0 °F 25% 30.24 in 10.0 mi SSW 18.4 mph - N/A   Clear
12:53 PM 39.9 °F 31.1 °F 8.1 °F 27% 30.20 in 10.0 mi SSW 17.3 mph 26.5 mph N/A   Clear
1:53 PM 42.1 °F 34.2 °F 9.0 °F 26% 30.18 in 10.0 mi SSW 16.1 mph 23.0 mph N/A   Clear
2:53 PM 45.0 °F 37.6 °F 6.1 °F 20% 30.16 in 10.0 mi WSW 17.3 mph 24.2 mph N/A   Clear
3:00 PM 44.6 °F 38.1 °F 6.8 °F 21% 30.12 in 10.0 mi WSW 13.8 mph 24.2 mph N/A   Clear
3:53 PM 39.9 °F 32.5 °F 10.0 °F 29% 30.17 in 10.0 mi South 12.7 mph - N/A   Clear
4:53 PM 35.1 °F 24.1 °F 10.0 °F 35% 30.21 in 10.0 mi SSW 19.6 mph - N/A   Clear
5:53 PM 30.0 °F 18.3 °F 10.0 °F 43% 30.23 in 10.0 mi SW 17.3 mph - N/A   Clear
6:53 PM 25.0 °F 12.6 °F 10.0 °F 53% 30.26 in 10.0 mi SW 15.0 mph - N/A   Clear
8:53 PM 26.1 °F 12.7 °F 9.0 °F 49% 30.25 in 10.0 mi SW 18.4 mph - N/A   Clear
10:53 PM 27.0 °F 13.5 °F 10.0 °F 49% 30.18 in 10.0 mi SW 19.6 mph - N/A   Overcast
11:53 PM 27.0 °F 15.2 °F 10.0 °F 49% 30.16 in 10.0 mi SW 15.0 mph - N/A   Mostly Cloudy